GFSMW_850_spd_159.txt.gz
Wind_Speed
35 31 30 30 29 27 23 22 23 24 26 29 28 23 20 18 19 18 13 13 14 14 13 8 8 9 5 4 5 3 2 2 1 3 4 10 11 9 7 7 6 2 4
35 37 35 34 32 30 27 25 24 26 26 28 29 24 21 19 18 13 15 11 14 14 16 11 7 10 8 5 2 3 4 2 1 1 5 3 2 7 5 3 2 4 4
37 39 37 38 34 34 32 29 27 26 29 29 28 24 24 20 19 18 16 15 13 9 14 15 11 9 10 9 4 6 5 4 1 2 3 3 4 12 7 4 5 6 4
41 40 39 40 37 34 33 31 28 27 27 27 28 29 27 24 24 19 15 15 14 12 11 15 16 14 14 12 9 11 9 7 6 2 3 5 6 6 6 5 7 5 6
43 44 41 39 35 34 32 34 30 28 28 26 27 26 27 24 24 21 17 17 16 16 14 17 17 17 18 16 14 14 15 13 11 9 8 5 3 5 8 10 10 9 7
43 45 44 40 37 36 35 35 31 29 29 30 28 27 31 27 24 23 21 19 17 18 16 16 16 16 18 20 19 21 20 17 15 14 12 11 8 7 8 10 12 11 6
43 40 44 45 42 40 39 38 34 31 30 31 31 27 29 29 28 23 21 22 21 20 17 18 17 16 18 18 19 19 21 22 18 16 16 14 15 13 12 11 11 12 9
40 45 47 46 45 42 41 38 36 33 30 31 33 31 28 33 30 26 24 22 23 21 19 20 20 18 17 17 17 16 17 18 19 16 15 18 18 18 17 15 13 12 8
37 44 47 46 47 45 42 40 38 35 32 30 31 32 30 32 34 30 28 25 22 22 22 22 23 23 22 20 19 19 17 16 19 19 15 15 15 18 17 15 14 12 10
41 42 46 47 48 48 43 41 39 37 31 29 30 32 32 32 34 32 31 30 28 25 23 23 23 24 26 24 22 24 22 20 19 17 18 19 16 16 17 16 14 14 14
43 44 47 45 46 49 43 43 42 40 39 33 29 29 32 31 33 31 30 32 33 31 28 26 25 23 21 23 26 27 25 24 20 20 20 20 20 19 17 16 12 15 19
39 42 44 46 46 49 46 44 43 40 40 36 31 27 28 29 30 32 30 30 31 30 29 27 29 28 27 27 26 27 26 26 24 21 21 23 20 20 20 22 21 19 20
39 37 39 45 44 45 44 43 40 38 35 37 33 28 26 28 29 29 29 29 30 31 29 29 28 29 30 30 31 29 29 30 29 26 24 23 23 24 24 22 22 23 22
32 35 36 39 42 42 40 40 35 31 32 32 33 29 28 23 23 26 27 27 25 24 26 28 32 31 29 30 30 31 34 33 32 31 29 27 26 26 24 24 24 23 22
27 28 25 28 33 36 35 34 29 26 27 29 31 28 26 24 22 19 21 22 30 26 25 36 34 31 33 36 34 34 35 36 36 35 33 32 30 29 27 26 26 24 24
27 23 22 22 16 24 33 39 33 34 30 28 31 30 26 27 21 19 20 21 26 21 24 23 26 31 36 37 39 38 37 39 41 41 37 35 33 32 31 30 29 28 26
20 20 19 19 25 24 23 29 27 29 28 26 31 24 29 16 20 23 24 24 22 21 24 29 30 34 28 26 29 36 37 42 42 41 38 37 35 32 32 31 30 29 28
19 16 13 6 12 15 14 21 25 25 25 26 28 24 18 18 22 21 20 19 20 20 22 25 29 32 35 35 34 39 42 43 39 38 38 32 34 35 31 28 29 30 29
25 20 8 18 30 37 21 21 24 22 24 28 26 18 14 16 16 15 15 18 19 21 23 26 30 34 38 39 40 40 41 44 43 40 41 43 40 37 33 31 31 30 30
28 17 13 16 21 20 18 25 24 26 23 20 17 15 15 13 12 11 11 12 15 18 23 28 32 37 41 42 42 42 44 46 45 45 45 44 37 34 37 33 35 34 35
28 24 19 22 21 22 24 23 21 21 19 15 12 9 7 8 7 5 7 9 12 17 22 27 31 36 41 45 46 46 47 48 48 47 44 42 40 34 32 33 33 35 33
30 24 24 22 23 23 21 18 17 17 14 12 7 5 5 3 1 2 5 10 16 20 24 28 29 28 29 32 36 40 43 45 47 48 46 43 33 29 28 28 28 28 27
28 25 25 26 23 20 15 15 18 16 14 10 8 6 5 4 1 3 8 13 17 22 24 24 24 25 20 23 23 26 29 36 39 45 43 38 33 21 23 24 23 21 23
28 24 26 24 21 17 13 10 16 16 15 10 7 6 6 4 2 6 11 13 19 21 23 26 30 32 26 22 19 20 20 21 22 25 28 31 30 25 23 21 20 19 18
28 24 25 21 19 18 17 16 15 17 14 11 10 12 9 5 5 9 13 17 22 25 27 27 28 32 36 34 21 15 14 14 14 15 17 21 25 25 23 19 17 19 23
27 23 23 20 21 21 20 18 16 14 14 13 16 13 8 6 7 10 15 18 19 22 25 21 25 27 27 29 27 10 6 10 10 14 19 21 22 22 21 22 21 23 23

GFSMW_850_spd_162.txt.gz
Wind_Speed
29 27 25 24 22 21 18 17 18 24 27 27 26 26 22 18 19 19 13 11 13 12 9 4 6 6 5 3 4 3 3 3 5 7 5 6 7 9 8 9 5 7 4
31 29 29 28 27 25 22 19 20 27 27 27 28 26 20 18 17 18 14 14 15 13 12 9 7 6 8 6 3 3 4 4 5 6 6 3 1 8 5 5 5 5 4
34 32 31 32 30 30 28 23 22 26 27 26 30 28 21 21 20 18 17 14 11 14 13 13 10 8 8 9 7 4 4 4 4 6 5 4 3 7 6 4 5 6 6
38 36 33 35 32 32 31 28 24 25 26 27 30 30 26 24 21 20 16 15 14 12 10 12 14 12 10 10 12 11 8 8 7 7 6 6 6 3 4 4 7 8 9
42 37 38 35 33 32 31 31 28 27 27 28 30 31 28 24 22 19 18 15 15 13 12 12 12 14 13 13 13 15 14 13 13 11 11 9 7 6 5 7 10 7 5
39 38 36 38 36 33 33 33 32 29 29 27 29 32 31 26 24 20 20 17 16 16 16 14 14 15 16 16 16 15 17 19 19 16 15 13 12 9 9 9 10 10 7
37 35 37 41 38 36 33 33 34 33 31 29 29 27 27 25 24 21 20 20 18 16 14 14 15 14 13 14 14 17 18 20 20 19 17 17 16 16 15 13 12 12 12
35 36 38 40 41 36 33 33 31 32 33 31 29 28 26 25 26 25 23 20 18 18 15 15 15 16 16 16 16 17 16 16 17 18 18 18 17 18 18 17 15 14 13
37 37 38 39 42 40 37 33 30 30 32 32 29 28 28 27 25 26 25 23 20 16 18 18 18 18 20 21 19 19 20 19 18 17 19 20 17 17 18 18 17 15 13
36 39 39 40 41 41 38 37 35 32 29 31 29 26 26 27 25 24 27 27 24 23 19 17 17 18 20 21 22 23 22 22 21 20 19 20 19 19 17 17 16 17 15
32 39 39 39 38 39 40 40 37 35 34 31 28 27 25 26 26 25 26 26 26 26 25 24 23 20 20 22 21 20 22 25 25 24 22 22 21 20 21 18 16 15 16
30 34 40 38 37 38 39 40 40 38 36 33 29 27 21 26 26 25 25 26 26 25 24 25 26 26 23 24 25 25 25 24 24 24 24 25 22 23 22 22 21 22 22
25 30 34 39 39 37 37 38 36 38 37 29 32 29 28 22 25 24 24 24 26 26 26 27 28 29 27 27 27 28 27 28 27 26 26 26 26 26 24 25 25 24 23
22 25 30 35 38 38 38 37 34 35 33 29 26 27 28 24 21 17 20 23 24 26 28 28 30 30 28 29 28 27 29 29 29 30 30 28 28 28 27 26 27 26 25
20 22 28 33 36 35 36 33 34 28 28 28 25 23 24 25 23 22 17 16 18 22 23 28 30 34 37 34 29 28 31 32 33 32 32 31 31 31 29 28 29 27 26
19 18 20 24 27 27 28 29 30 28 26 25 20 18 19 19 17 18 18 17 18 18 23 23 29 30 29 26 33 31 35 35 35 36 37 36 34 33 33 31 31 30 29
19 20 19 19 21 21 24 28 29 28 27 25 18 19 13 16 19 18 21 21 22 22 24 26 26 28 29 30 27 31 33 34 35 36 37 35 36 34 32 32 31 31 32
20 18 18 17 15 19 19 24 30 28 27 25 22 19 17 18 18 19 21 18 18 18 20 23 26 29 31 32 33 34 35 39 40 38 37 35 35 36 33 32 34 32 32
21 15 12 11 12 16 23 27 25 23 21 23 18 16 16 16 14 18 15 13 15 18 20 22 24 28 31 34 36 38 40 42 42 40 39 39 39 41 36 35 32 33 34
21 18 14 8 7 10 21 23 24 25 26 20 17 13 11 12 12 9 9 10 12 15 18 22 26 29 33 36 39 42 45 47 47 45 44 43 41 43 40 39 39 36 36
21 20 14 9 8 5 9 19 13 26 22 18 15 13 10 7 6 5 5 6 9 12 17 21 26 31 34 35 36 38 43 45 48 50 49 47 45 43 41 41 38 34 30
25 21 17 15 8 6 11 21 21 14 14 16 16 11 9 8 7 5 2 3 8 13 17 20 25 26 27 27 26 28 31 35 41 47 47 47 45 43 38 30 32 30 28
26 22 20 16 14 11 9 9 11 15 18 15 12 8 8 9 7 3 1 6 10 12 17 21 25 28 28 25 23 24 26 28 31 39 41 40 40 37 27 26 26 24 26
24 24 21 16 15 15 14 10 11 13 11 9 7 7 10 9 7 4 6 9 11 17 22 27 30 30 30 30 32 33 23 18 21 24 24 23 28 32 26 25 21 21 22
22 21 18 15 15 15 15 14 14 15 15 10 6 11 13 10 7 7 9 12 17 22 26 29 28 32 32 32 33 37 23 14 13 15 16 16 18 24 30 28 23 22 22
24 21 18 17 16 17 17 17 17 17 12 9 12 15 12 9 7 8 10 14 18 21 24 26 27 30 28 29 29 31 27 12 9 10 13 11 16 19 22 26 23 17 19

GFSMW_850_spd_165.txt.gz
Wind_Speed
18 20 20 19 18 18 16 15 16 21 23 25 25 24 22 19 17 16 14 10 10 9 9 6 5 5 4 2 3 4 5 5 7 7 7 9 5 4 6 8 6 4 3
20 22 24 23 22 20 18 16 15 22 26 26 26 25 20 18 15 16 14 11 11 12 13 9 5 5 5 4 4 4 5 6 6 6 8 6 4 7 7 4 6 7 7
26 24 26 26 25 25 23 19 18 22 27 27 27 24 22 19 16 16 17 13 12 13 14 13 9 7 5 6 6 5 5 5 7 7 6 5 5 11 6 5 8 8 9
29 26 25 27 28 26 24 23 20 22 26 28 28 28 27 21 20 18 16 14 12 11 13 13 13 11 8 8 8 9 8 8 7 9 8 7 8 6 7 6 6 10 10
32 31 30 30 27 27 26 25 24 23 26 28 28 30 30 24 19 18 17 15 15 14 12 10 11 13 13 13 12 11 11 12 10 10 11 10 11 9 8 10 11 9 8
32 32 34 30 29 28 28 27 28 26 26 26 27 30 32 29 23 21 19 18 16 15 15 14 12 12 14 14 13 15 14 14 15 16 14 11 10 10 11 11 11 11 9
32 31 30 31 31 32 30 29 28 30 28 27 27 29 31 30 28 22 20 19 18 17 16 16 16 13 11 10 10 11 14 15 15 14 12 13 12 12 13 12 12 12 12
28 31 33 37 34 32 33 30 29 29 30 29 27 27 28 29 28 24 22 18 17 17 18 16 15 13 13 14 14 13 13 14 14 14 13 13 12 12 12 12 11 13 12
26 30 30 35 33 33 35 31 29 28 29 29 27 26 28 27 26 24 25 23 21 18 16 18 17 17 16 16 18 18 17 16 17 18 16 15 14 15 15 14 13 12 14
21 27 30 34 33 31 35 34 31 28 26 28 27 25 25 27 27 24 23 25 23 21 19 17 17 17 18 18 18 18 19 21 20 18 19 18 16 17 16 17 15 14 15
21 25 31 32 31 31 36 37 34 31 29 27 25 25 25 25 26 27 25 24 24 25 23 21 21 21 20 19 19 19 21 21 20 20 22 22 20 17 17 18 18 19 16
21 23 28 31 30 30 33 37 37 35 31 32 28 25 23 25 26 27 26 25 24 24 24 23 24 25 25 25 26 25 25 25 25 24 21 22 20 21 19 19 20 19 19
17 21 23 31 32 31 33 35 37 35 35 33 28 27 27 23 22 23 23 25 23 23 25 25 25 23 22 24 26 27 27 29 29 28 27 25 23 23 21 23 21 21 21
15 21 24 28 31 32 31 32 33 35 33 31 25 29 27 27 23 19 18 22 23 23 24 26 27 26 26 26 27 29 29 29 28 28 29 27 28 28 25 24 24 23 22
12 18 22 24 26 29 30 30 31 32 32 29 33 33 27 27 26 21 22 18 16 19 20 21 22 22 24 26 29 31 31 33 31 30 30 31 30 28 28 27 26 24 24
13 14 16 19 23 25 26 27 28 30 29 28 28 28 25 24 25 24 20 19 17 18 17 18 20 22 23 26 27 26 27 28 37 34 33 37 35 33 31 32 30 27 26
14 14 12 13 16 19 19 22 24 27 25 25 25 24 21 20 23 19 19 19 22 19 19 20 21 23 25 28 28 28 30 32 32 35 37 33 36 37 35 31 31 31 29
17 14 11 12 10 9 10 15 21 24 24 23 23 23 20 21 22 20 18 20 20 20 20 19 20 22 25 27 29 31 32 34 34 35 36 39 38 36 31 30 28 31 31
14 11 12 11 9 9 10 13 18 21 23 24 29 23 22 21 21 21 18 14 15 14 14 17 20 20 21 25 29 34 37 39 40 40 40 39 39 37 34 33 33 29 29
11 14 15 14 11 9 10 16 19 22 26 24 26 25 23 21 20 16 14 12 10 12 13 16 17 20 23 27 30 33 35 39 41 42 43 44 43 41 38 34 33 34 32
16 18 16 14 11 8 8 11 16 20 26 27 25 25 24 19 16 13 11 9 9 9 10 13 17 20 23 27 30 31 33 33 36 38 39 38 39 41 40 37 33 32 29
19 18 18 16 16 15 10 12 17 16 14 16 13 14 17 15 13 11 9 7 5 6 9 13 17 20 23 26 26 23 22 24 32 37 34 34 33 35 35 34 33 29 29
21 18 20 17 19 18 15 17 18 18 21 16 15 14 10 11 11 10 7 3 2 7 11 15 20 24 25 24 22 20 17 22 25 26 23 22 18 25 31 32 31 23 22
26 19 19 16 16 17 20 21 24 21 16 17 20 18 17 16 14 10 7 4 5 9 15 20 24 26 26 25 23 21 21 17 16 15 15 15 13 14 19 24 24 21 23
26 26 19 16 15 18 21 22 25 24 22 22 22 23 21 18 15 12 10 8 11 17 21 22 23 30 32 28 25 24 24 17 13 12 12 11 10 12 13 21 22 22 23
23 23 20 17 17 21 23 23 24 24 24 25 26 25 22 18 15 12 12 13 17 20 23 23 24 28 31 27 25 23 24 18 13 11 9 7 7 5 7 19 20 22 17

GFSMW_850_spd_168.txt.gz
Wind_Speed
19 18 19 18 17 16 16 17 16 18 19 18 20 18 17 21 15 15 15 11 11 11 9 6 7 5 4 4 2 2 4 3 6 4 4 4 4 4 5 5 4 4 2
21 22 21 21 20 19 18 18 17 19 19 18 19 19 19 22 16 17 16 12 12 12 10 9 7 8 5 5 2 2 3 4 5 5 7 4 2 5 5 4 5 4 5
25 24 24 24 22 22 21 19 19 20 22 20 22 24 22 20 18 18 19 14 12 11 12 13 10 8 6 6 5 2 2 4 4 5 5 6 6 8 3 3 5 6 6
27 26 25 25 25 24 21 20 19 19 24 26 26 20 25 20 19 16 17 13 13 12 12 14 14 11 7 8 5 5 6 4 4 5 4 4 6 5 6 5 3 5 6
29 30 29 28 26 24 24 23 21 19 23 28 25 27 22 17 15 15 14 14 13 13 11 14 15 15 12 11 12 10 8 7 7 6 6 7 7 7 5 9 6 7 7
29 31 30 28 25 24 24 24 25 23 24 27 31 28 26 20 17 18 15 13 11 12 16 15 13 13 12 13 12 12 13 12 11 9 10 9 8 9 9 11 11 11 9
27 32 33 30 27 27 26 25 26 28 27 27 30 30 28 29 21 17 17 15 15 15 15 17 17 15 14 12 11 11 10 11 11 11 9 10 11 10 10 11 13 13 12
22 31 32 32 31 29 28 27 27 29 30 28 27 28 28 27 28 22 20 17 17 17 15 16 17 15 16 15 14 12 11 11 11 11 10 8 10 11 11 11 11 12 12
16 28 31 32 31 30 30 30 29 29 30 29 27 27 27 28 25 25 22 21 18 16 16 15 17 17 17 16 14 15 14 14 13 12 14 10 10 11 12 12 11 12 13
14 23 30 31 30 29 29 31 29 30 30 29 29 29 28 27 28 25 26 21 20 20 17 15 15 18 19 18 18 17 15 17 15 14 14 15 12 14 13 14 14 14 13
14 21 27 29 29 28 27 30 30 28 28 28 27 27 26 25 26 26 25 24 23 23 24 22 17 16 16 17 18 17 17 18 18 17 17 18 18 16 15 14 16 15 15
15 20 26 27 28 28 28 30 30 29 29 29 30 28 26 24 23 25 25 25 25 23 24 25 25 23 19 19 21 23 20 19 19 19 20 19 17 19 18 18 17 17 16
16 20 25 28 29 29 29 29 30 31 31 32 31 27 27 26 25 23 23 23 24 24 22 23 25 25 23 21 21 20 20 20 21 21 22 22 21 22 20 19 18 17 16
16 20 22 25 26 26 27 28 27 28 30 32 30 28 29 27 24 22 21 22 22 22 23 23 22 23 22 21 23 23 22 21 22 22 23 23 23 23 23 25 23 21 21
14 19 21 22 24 25 24 25 25 26 27 29 27 31 30 28 26 26 22 19 18 19 21 22 21 20 19 20 21 21 22 22 25 25 26 26 27 28 28 26 24 25 23
12 15 18 20 22 23 24 24 25 26 26 26 28 24 29 29 28 26 26 25 21 19 19 17 16 16 16 22 25 26 27 27 24 25 25 26 29 33 31 34 33 31 29
8 11 14 16 17 19 20 21 21 21 23 24 26 27 30 29 26 23 26 26 18 19 20 17 17 18 22 24 26 27 30 32 32 31 29 27 26 29 29 28 32 35 36
6 9 10 11 13 14 16 16 17 19 21 24 26 25 25 27 24 26 25 22 22 21 21 21 21 21 23 26 28 31 32 33 34 35 36 37 37 32 28 26 27 27 29
6 9 10 12 13 14 15 17 17 17 18 22 22 22 19 17 21 27 29 25 19 18 20 20 19 21 24 27 28 30 31 32 32 33 34 36 39 40 39 36 34 30 30
5 10 13 14 13 14 15 16 16 15 15 15 19 20 19 24 19 23 23 19 19 17 16 16 19 20 21 26 27 29 29 30 31 33 35 36 37 40 42 40 37 36 30
6 11 13 14 15 17 16 17 18 21 23 26 25 29 29 30 25 17 21 19 16 13 13 13 14 16 20 22 28 29 31 30 31 33 33 29 30 32 34 39 42 35 28
9 12 14 14 16 16 15 14 13 12 15 20 20 23 24 28 27 19 16 14 10 6 5 8 10 12 18 22 24 22 24 26 29 33 37 35 28 26 30 35 35 39 32
9 13 13 18 18 16 15 16 17 15 14 18 18 18 19 15 17 14 10 8 6 2 3 5 6 8 11 15 21 21 19 18 23 26 25 19 16 17 19 29 33 27 30
12 15 19 21 22 19 21 20 23 20 19 24 21 13 7 12 13 12 6 7 6 5 4 6 7 11 15 21 19 17 17 14 14 15 13 12 12 13 14 15 19 30 26
15 17 20 22 24 21 23 30 30 28 28 25 26 25 16 12 16 13 11 8 8 7 7 9 11 15 23 23 19 19 18 15 12 12 11 8 9 10 10 10 14 20 22
17 18 21 24 24 25 28 31 30 27 26 26 24 23 23 21 17 14 13 12 11 11 14 14 14 20 24 25 20 15 15 14 11 10 9 8 9 8 5 2 9 15 21

GFSMW_850_spd_171.txt.gz
Wind_Speed
18 18 19 18 18 18 19 19 18 21 24 22 20 17 18 16 15 13 13 10 9 10 12 8 8 7 7 2 2 5 6 6 6 7 8 1 1 3 2 3 4 4 0
21 20 21 21 20 20 20 20 18 20 23 24 21 20 18 17 16 13 15 13 11 11 10 10 7 9 6 9 5 6 5 6 1 9 10 9 6 4 2 2 0 4 2
23 23 23 23 21 22 22 21 20 18 22 20 22 21 20 17 19 14 18 14 12 11 13 11 12 6 12 10 6 3 6 5 5 7 5 7 6 9 2 1 1 5 8
24 25 25 25 24 23 22 21 21 21 21 21 22 24 20 17 21 16 14 15 12 11 12 12 12 10 8 9 2 6 9 4 7 4 3 8 7 8 8 6 6 4 5
26 28 28 26 25 24 23 23 22 22 23 25 22 20 21 17 16 18 16 16 13 12 12 14 13 13 12 9 10 7 6 7 6 9 7 8 8 10 6 12 9 7 4
24 27 28 27 26 25 24 24 24 23 23 26 25 26 22 22 16 18 17 13 15 12 15 13 14 13 13 13 11 11 10 11 13 9 7 9 9 10 11 12 12 11 11
20 27 31 31 29 28 26 25 26 25 24 25 27 25 24 23 20 18 19 18 17 16 17 13 15 12 12 12 11 12 12 11 10 10 11 11 11 11 12 12 13 14 12
17 25 31 33 31 29 28 27 27 27 26 25 27 30 29 23 21 21 19 17 15 13 12 12 12 15 14 13 12 11 12 11 16 10 10 11 11 11 12 12 12 13 13
8 21 30 33 33 32 30 30 30 28 27 26 26 28 29 28 24 24 23 18 17 16 14 12 12 13 14 14 14 14 15 14 12 12 13 13 12 12 12 13 12 11 14
7 16 27 33 34 33 31 29 29 29 28 27 26 26 26 28 28 28 29 22 23 22 18 15 16 16 16 17 19 16 15 15 15 15 16 17 14 15 14 15 13 14 15
8 16 25 31 33 32 31 30 29 28 27 27 26 25 25 25 26 25 25 29 23 22 23 23 16 17 17 18 21 19 18 16 16 16 17 18 20 18 16 17 18 17 16
9 18 24 30 32 32 32 30 30 28 28 28 30 28 25 24 23 23 23 23 25 24 26 24 22 21 19 20 20 18 17 18 18 18 20 20 18 22 21 17 20 19 19
10 19 24 30 32 32 32 31 31 30 26 27 29 27 25 24 24 23 23 24 23 23 20 21 24 24 22 23 23 24 22 21 21 22 23 24 23 23 21 22 21 22 23
12 20 24 29 31 31 31 31 32 30 30 28 28 29 27 26 24 24 24 23 24 23 22 22 21 20 20 21 22 22 25 25 22 24 25 26 27 27 27 27 26 27 24
12 21 23 28 29 29 31 31 31 32 31 32 28 32 30 28 26 25 26 24 23 23 22 21 21 21 21 20 24 25 25 24 25 23 24 25 28 29 28 29 27 27 27
10 16 20 24 28 30 31 32 32 32 33 34 32 30 32 30 30 29 28 26 22 21 20 20 21 22 24 27 25 24 24 21 21 25 25 25 26 28 31 33 36 36 32
7 13 17 21 25 27 28 28 31 30 32 34 33 29 30 28 27 26 27 26 23 20 21 20 20 21 20 20 22 22 27 31 30 30 30 28 26 28 29 31 33 33 35
6 12 15 18 21 23 25 25 25 28 31 30 27 26 25 25 24 23 22 21 21 20 19 22 21 21 25 25 25 25 28 31 34 35 35 36 36 35 35 32 30 30 33
4 11 14 16 18 20 22 23 22 23 23 23 24 23 24 23 23 22 20 16 22 22 22 22 22 23 21 25 26 27 30 32 34 34 35 35 35 35 36 34 35 40 39
3 9 13 15 16 17 19 21 20 20 19 19 20 20 22 23 23 28 28 27 22 18 14 16 17 19 19 25 28 30 31 33 32 33 33 31 33 36 35 34 40 44 40
5 9 13 13 15 16 18 19 20 25 26 26 27 28 27 30 30 28 25 22 16 12 12 11 13 15 19 23 29 33 32 31 32 31 30 28 26 32 36 37 38 38 39
6 11 14 15 14 15 18 19 20 23 22 23 24 25 28 28 28 24 19 16 13 11 8 8 9 9 17 20 25 30 31 29 32 31 28 27 27 29 28 29 36 38 35
7 11 15 15 14 13 14 16 17 18 19 19 20 23 27 23 20 15 15 13 10 4 4 2 4 7 9 12 24 27 22 18 21 24 24 24 27 24 24 24 24 25 34
8 12 14 15 15 14 13 13 18 18 16 14 15 18 18 18 19 16 12 9 7 2 4 1 2 5 9 14 20 18 17 15 13 14 16 18 18 18 20 19 17 19 19
8 12 12 15 17 17 17 18 21 22 20 22 21 20 16 13 13 12 15 7 7 12 11 6 1 3 8 14 16 15 15 12 9 7 8 8 9 12 12 11 10 8 12
8 13 14 16 18 17 19 21 22 21 21 23 23 20 19 19 15 13 10 8 14 14 8 6 5 5 11 18 23 13 12 10 6 5 6 7 9 10 10 6 1 7 10

GFSMW_850_spd_174.txt.gz
Wind_Speed
17 20 18 18 16 16 16 17 24 26 23 21 18 23 19 15 11 17 9 16 13 12 14 7 8 9 7 9 9 6 8 8 8 11 19 13 8 7 5 3 3 2 4
21 23 21 22 22 22 20 18 20 24 25 23 19 17 17 18 16 14 9 9 10 11 14 8 7 6 7 5 6 8 9 7 6 5 11 9 9 5 8 4 8 6 8
23 26 24 25 25 26 25 26 22 21 23 24 24 22 20 18 18 12 20 19 13 17 15 12 11 7 10 7 8 4 5 6 6 5 2 4 3 12 8 5 4 9 6
24 29 27 26 26 28 26 25 26 24 22 27 28 27 28 25 22 20 16 22 18 13 11 15 12 13 6 7 3 3 8 7 7 7 5 10 6 6 9 10 9 2 7
25 27 28 27 26 28 26 26 26 24 18 25 28 27 26 22 19 21 17 16 15 14 14 14 14 13 12 5 7 11 8 6 6 10 10 6 10 11 15 14 11 13 7
22 29 31 30 27 29 27 27 27 27 23 25 27 28 26 23 16 21 17 17 17 14 13 14 14 13 13 13 11 9 12 12 13 14 11 6 9 15 16 18 16 16 12
22 25 32 33 31 31 31 29 28 27 28 27 30 28 25 25 23 21 23 18 15 18 17 15 13 12 13 11 12 12 11 13 14 9 14 12 13 13 15 16 17 18 17
22 26 32 35 36 32 34 32 30 27 28 28 31 30 28 25 25 17 20 18 18 19 19 22 16 11 13 13 12 14 10 9 14 13 11 9 16 12 10 14 17 20 16
9 25 29 36 38 36 37 33 32 26 28 29 27 28 32 28 26 20 20 20 19 14 10 12 18 14 11 17 17 15 14 15 16 14 10 12 13 12 10 22 15 14 16
8 8 25 33 37 37 36 33 32 30 26 29 27 27 29 30 26 27 23 25 21 22 15 11 14 12 11 14 17 17 16 17 15 14 14 16 15 17 20 17 19 14 12
12 10 16 30 35 37 33 34 32 32 28 29 28 27 27 28 30 29 28 28 24 23 25 23 19 19 19 19 20 20 19 19 20 15 17 20 21 21 22 23 18 16 19
5 7 15 27 34 37 34 35 34 32 28 27 30 27 25 24 24 29 31 28 31 31 26 26 27 26 22 21 21 21 20 18 19 20 19 18 19 20 22 22 24 24 22
10 10 17 27 33 37 35 35 35 33 30 28 30 30 26 24 25 23 24 28 27 25 26 28 28 26 27 24 25 24 24 23 23 23 23 23 24 26 25 25 25 23 22
8 10 18 24 31 35 36 33 35 34 32 29 33 33 30 27 25 26 24 21 25 23 22 24 24 23 22 24 26 26 25 26 25 25 25 26 26 27 29 29 28 28 28
5 9 16 22 27 31 35 34 33 34 35 33 34 32 31 29 27 25 27 25 23 26 24 22 24 25 24 22 21 22 24 25 27 27 25 28 25 24 26 26 29 32 30
7 8 16 20 27 28 33 37 32 37 35 34 34 33 32 32 31 29 28 30 27 26 26 23 23 23 24 27 26 24 26 24 26 27 26 24 27 30 29 27 27 30 33
8 9 15 20 26 28 29 33 35 32 34 34 32 34 32 32 33 32 31 31 31 28 27 26 24 25 24 24 24 26 26 29 31 33 34 35 34 31 29 31 30 30 31
9 5 12 16 23 28 27 27 31 29 32 34 33 32 32 31 33 34 33 31 30 28 25 25 24 22 23 24 21 23 25 27 29 32 34 36 36 35 35 36 38 40 39
8 9 10 13 17 24 27 27 27 31 27 31 32 31 28 30 32 32 32 31 30 27 28 24 24 22 23 25 25 24 25 27 30 32 33 33 34 34 33 33 35 37 38
5 8 10 13 14 17 21 26 27 25 26 25 26 26 30 31 30 26 29 28 28 26 24 25 24 23 18 20 22 24 28 30 32 34 34 32 31 28 29 31 33 36 39
7 8 10 11 13 17 19 21 23 21 23 24 24 23 22 23 27 28 29 30 29 29 26 18 17 13 13 17 21 26 29 32 34 37 38 34 31 32 33 35 36 37 38
9 8 10 11 13 16 18 21 24 27 29 27 26 26 25 25 28 27 25 23 20 16 15 13 9 5 8 17 22 26 30 32 33 31 28 25 23 22 21 25 29 30 29
10 8 11 15 14 13 18 24 25 22 22 22 22 21 22 24 23 16 13 11 11 12 10 7 5 6 6 13 19 26 30 28 25 23 23 20 19 20 22 21 22 22 24
17 9 15 14 12 14 19 23 22 23 23 22 21 20 21 22 18 14 15 16 15 11 12 10 10 8 5 10 16 21 22 20 17 17 16 15 15 13 15 18 20 20 18
17 10 12 11 11 15 17 24 21 22 21 20 18 18 17 16 15 17 19 16 15 11 11 9 8 5 4 10 15 19 21 21 14 14 14 12 13 14 14 15 14 11 9
14 12 10 11 16 20 21 19 22 23 23 20 19 19 20 21 21 19 19 15 13 9 6 5 3 2 4 7 14 23 26 26 17 12 10 9 8 10 12 12 10 2 6